Location: Wapato
(46.4478°N, 120.4212°W)
Time: 22:58:30
(UTC+00:00)

Vanguard 1 Rocket - Pass Details

Date: 15 May 2026
Orbit: 656 x 4211 km, 34.3° (Epoch: 2 June)

Event Time Altitude Azimuth Distance (km) Brightness Sun altitude
Rises 21:51:33 0° 208° (SSW) 3,852 11.1 54.0°
Reaches altitude 10° 21:54:18 10° 195° (SSW) 3,228 10.8 53.7°
Maximum altitude 22:00:54 26° 141° (SE) 2,993 10.3 52.8°
Drops below altitude 10° 22:11:28 10° 93° (E) 5,356 11.1 51.3°
Sets 22:17:48 0° 84° (E) 7,029 11.6 50.4°
